Preview of NWS' New Version of Forecast
This preview is not operational and should not be used for support decisions.
Latest weather observations around

Birmingham, Birmingham International Airport (KBHM)

Using International System of Units (Switch to English Units)
Date/ Time (CST) Wind (kph) Vis. (km) Weather Sky Cond. Temp (°C) Rel. Humidity Wind Chill (°C) Heat Index (°C) Pressure Precip. (cm)
Air Dwpt 6 hour Altimeter (hPa) Sea level (hPa) 1 hr 3 hr 6 hr
Max Min
Jan 16 15:53 Calm 16.09 Clear CLR 12 0     43%     1025.1 1025.1      
Jan 16 14:53 WSW 8 16.09 Clear CLR 12 1     45%     1025.1 1025.2      
Jan 16 13:53 Calm 16.09 Clear CLR 12 1     48%     1025.4 1025.6      
Jan 16 12:53 Calm 16.09 Clear CLR 10 1     52%     1025.7 1025.7      
Jan 16 11:53 WNW 9 16.09 Clear CLR 9 1     56% 7   1026.8 1027.1      
Jan 16 10:53 NW 11 16.09 Clear CLR 7 1     63% 5   1028.5 1028.6      
Jan 16 09:53 NW 13 16.09 Clear CLR 6 1     70% 3   1028.8 1028.9      
Jan 16 08:53 Calm 11.27 Clear CLR 3 1     82%     1028.1 1028.3      
Jan 16 07:53 Calm 11.27 Clear CLR -1 -2     92%     1027.4 1027.6      
Jan 16 06:53 Calm 8.05 Fog/Mist CLR -2 -3     92%     1027.4 1027.6      
Jan 16 05:53 Calm 11.27 Clear CLR -2 -4     88%     1026.8 1027.1      
Jan 16 04:53 Calm 11.27 Clear CLR -2 -3     92%     1026.4 1026.7      
Jan 16 03:53 Calm 11.27 Clear CLR -2 -3     89%     1026.4 1026.7      
Jan 16 02:53 Calm 11.27 Mostly Clear FEW250 -2 -3     92%     1027.1 1027.3      
Jan 16 01:53 Calm 11.27 Mostly Cloudy BKN250 -1 -2     92%     1026.8 1027.2      
Jan 16 00:53 Calm 11.27 Mostly Cloudy BKN250 -1 -2     92%     1026.4 1026.7      
Jan 15 23:53 Calm 14.48 Partly Cloudy SCT250 -1 -2     92%     1026.1 1026.3      
Jan 15 22:53 Calm 14.48 Clear CLR 0 -2     85%     1026.4 1026.9      
Jan 15 21:53 Calm 16.09 Mostly Clear FEW020 0 -2     88%     1026.8 1027      
Jan 15 20:53 Calm 16.09 Partly Cloudy SCT018 1 -2     85%     1026.8 1026.9      
Jan 15 20:40 Calm 16.09 Partly Cloudy SCT018 2 -1     79%     1026.4        
Jan 15 19:53 N 9 16.09 Cloudy OVC018 3 -1     76% 0   1026.4 1026.8      
Jan 15 18:53 N 8 16.09 Cloudy OVC020 3 -1     73% 1   1026.8 1026.9      
Jan 15 17:53 WNW 11 16.09 Cloudy OVC020 4 -1     72% 1   1026.4 1026.7      
Jan 15 16:53 NNE 8 16.09 Cloudy OVC021 4 -1     72% 2   1026.8 1027      
Jan 15 15:53 NNW 9 16.09 Cloudy OVC021 4 -1     70% 2   1026.8 1027      
Jan 15 14:53 N 13 16.09 Cloudy OVC021 4 -1     70% 1   1026.8 1026.8      
Jan 15 13:53 8 16.09 Cloudy OVC020 5 -1     67% 3   1026.8 1027      
Jan 15 12:53 N 5 16.09 Cloudy OVC019 4 -1     70% 3   1026.8 1027      
Jan 15 11:53 NNW 9 16.09 Cloudy OVC018 4 -1     70% 2   1028.1 1028.2      
Jan 15 10:53 N 9 16.09 Cloudy OVC017 3 -1     73% 1   1029.1 1029.2      
Jan 15 09:53 NW 13 16.09 Clear   3 -1     76% 0   1029.1 1029.3      
Jan 15 08:53 N 13 16.09 Cloudy OVC015 3 -1     76% -1   1028.5 1028.6      
Jan 15 07:53 NNW 13 16.09 Cloudy OVC017 3 -1     76% -1   1028.1 1028.2      
Jan 15 06:53 NNW 15 16.09 Cloudy OVC018 3 -1     76% -1   1027.8 1027.8      
Jan 15 05:53 N 11 16.09 Cloudy OVC018 3 -1     76% 0   1027.4 1027.5      
Jan 15 04:53 N 15 16.09 Cloudy OVC018 3 -1     76% 0   1026.8 1027.1      
Jan 15 03:53 N 8 16.09 Cloudy OVC015 3 0     79% 1   1026.8 1026.9      
Jan 15 02:53 N 8 16.09 Cloudy OVC018 4 1     79% 2   1027.1 1027.4      
Jan 15 01:53 NNW 13 16.09 Cloudy OVC023 4 0     76% 1   1027.1 1027.3      
Jan 15 00:53 WNW 11 16.09 Cloudy OVC025 4 1     79% 1   1027.1 1027.2      
Jan 14 23:53 WNW 11 16.09 Cloudy FEW020 OVC027 4 0     76% 1   1027.1 1027.2      
Jan 14 22:53 WNW 8 16.09 Cloudy OVC028 4 -1     72% 2   1027.8 1028      
Jan 14 21:53 N 8 16.09 Cloudy OVC022 4 0     76% 2   1027.4 1027.8      
Jan 14 20:53 N 13 16.09 Cloudy OVC018 4 0     76% 1   1027.4 1027.8      
Jan 14 19:53 N 15 16.09 Cloudy OVC018 4 0     76% 0   1027.4 1027.5      
Jan 14 18:53 NNW 13 16.09 Cloudy OVC015 3 0     79% 0   1027.4 1027.7      
Jan 14 18:32 NNW 17 16.09 Cloudy OVC015 3 0     79% -1   1027.4        
Jan 14 17:53 N 15 16.09 Cloudy OVC013 4 1     79% 0   1027.4 1027.7      
Jan 14 16:53 NW 17 16.09 Cloudy OVC014 4 1     79% 1   1027.1 1027.3      
Jan 14 15:53 NW 18 16.09 Cloudy OVC015 5 1     76% 1   1027.1 1027.2      
Jan 14 14:53 NW 15 16.09 Cloudy OVC012 5 2     79% 2   1026.8 1026.9      
Jan 14 13:53 NW 17 16.09 Cloudy OVC012 5 2     79% 2   1026.8 1027      
Jan 14 12:53 NW 17 16.09 Cloudy OVC013 6 2     79% 2   1027.1 1027.1      
Jan 14 11:53 NW 15 11.27 Cloudy OVC013 6 2     76% 3   1027.4 1027.5     0
Jan 14 11:07 NW 11 4.83 Fog/Mist OVC012 5 2     82% 2   1028.1        
Jan 14 10:53 NW 11 4.83 Fog/Mist SCT006 BKN009 OVC018 5 3     86% 2   1028.8 1028.7      
Jan 14 10:02 NNW 9 4.83 Fog/Mist OVC006 4 3     89% 2   1028.8        
Jan 14 09:53 NNW 15 3.22 Fog/Mist OVC005 4 3     89% 1   1028.8 1028.9 0    
Jan 14 09:21 NW 11 3.22 Light Drizzle and Fog/Mist OVC005 4 3     93% 1   1028.5   0    
Jan 14 09:01 NW 13 3.22 Light Drizzle and Fog/Mist OVC004 4 3     93% 1   1028.8   0    
Jan 14 08:53 NW 17 3.22 Light Drizzle and Fog/Mist OVC005 4 3     93% 0   1028.8 1028.9 0 0  
Jan 14 08:24 NNW 13 3.22 Light Drizzle and Fog/Mist OVC007 4 3     93% 1   1028.5   0    
Jan 14 07:53 NW 9 8.05 Light Drizzle and Fog/Mist BKN008 OVC012 4 3     93% 2   1028.1 1028.1 0    
Jan 14 06:53 NW 9 16.09 Cloudy OVC012 4 2     86% 2   1027.8 1027.9 0    
Jan 14 06:48 NNW 9 16.09 Cloudy OVC014 4 2     87% 2   1027.8   0    
Jan 14 06:02 NNW 13 16.09 Light Drizzle OVC016 4 2     86% 1   1027.8   0    
Jan 14 05:53 NW 13 16.09 Cloudy OVC014 4 2     86% 1   1027.4 1027.6      
Jan 14 05:42 NW 11 16.09 Cloudy OVC014 4 2     86% 2   1027.4        
Jan 14 05:19 NNW 8 16.09 Cloudy SCT010 OVC016 4 2     86% 3   1027.1        
Jan 14 04:53 WNW 11 16.09 Cloudy BKN011 OVC017 4 3     89% 2   1026.8 1026.9      
Jan 14 04:19 NNW 8 16.09 Cloudy OVC016 4 2     86% 3   1026.8        
Jan 14 03:53 NW 11 16.09 Cloudy OVC014 4 2     86% 2   1026.8 1026.9      
Jan 14 03:11 NW 11 16.09 Cloudy OVC014 5 3     86% 2   1026.8        
Jan 14 02:53 NW 9 16.09 Cloudy OVC017 5 3     86% 3   1026.8 1026.9      
Jan 14 01:53 NW 13 16.09 Cloudy OVC018 5 3     86% 2   1026.4 1026.5      
Jan 14 01:25 NW 13 16.09 Cloudy SCT013 OVC019 5 3     86% 2   1026.1        
Jan 14 01:15 NW 11 16.09 Cloudy OVC014 5 3     86% 2   1026.4        
Jan 14 01:06 NW 9 16.09 Cloudy OVC016 5 3     86% 3   1026.1        
Jan 14 00:53 NW 15 16.09 Cloudy OVC014 5 3     86% 2   1026.1 1025.9      
Jan 13 23:53 NNW 13 16.09 Cloudy OVC012 6 3     82% 3   1026.1 1026      
Jan 13 22:53 NW 13 16.09 Cloudy OVC013 6 3     85% 3   1026.1 1026.2      
Jan 13 21:53 NW 13 16.09 Cloudy OVC014 6 3     85% 3   1026.4 1026.3      
Jan 13 21:05 NW 13 16.09 Cloudy OVC014 6 3     82% 3   1026.1        
Jan 13 20:53 NW 13 16.09 Cloudy OVC016 6 3     82% 3   1026.1 1026      
Jan 13 20:40 NW 13 16.09 Cloudy OVC015 6 3     82% 3   1025.7        
Jan 13 19:53 NW 15 16.09 Cloudy OVC012 6 3     82% 3   1025.7 1025.9      
Jan 13 19:32 NW 18 16.09 Cloudy OVC012 6 3     82% 3   1025.7        
Jan 13 18:53 NW 15 16.09 Cloudy OVC017 7 3     79% 4   1025.4 1025.5      
Jan 13 18:33 NW 18 16.09 Cloudy OVC015 7 3     79% 3   1025.4        
Jan 13 17:53 NW 22 16.09 Cloudy OVC013 7 4     82% 3   1025.1 1025      
Jan 13 17:13 WNW 15 16.09 Cloudy BKN014 OVC019 7 4     80% 5   1024.4        
Jan 13 16:53 WNW 15 16.09 Cloudy OVC018 7 4     80% 5   1024.1 1024.1      
May 13 22:53 Calm 16.09 Clear CLR 23 18     73%   23 1019 1018      
May 13 16:53 NNW 11 16.09 Mostly Clear FEW065 33 14     33%   32 1018 1017      
May 13 13:53 9 16.09 Mostly Clear FEW065 32 16     38%   32 1020 1019.2      
May 12 16:53 S 11 16.09 Mostly Clear FEW250 32 12     29%   30 1019.3 1018.5      
May 12 08:53 Calm 16.09 Clear CLR 26 14     50%   26 1022.7 1021.8      
May 12 03:53 Calm 16.09 Clear CLR 18 15     84%     1020.3 1019.4      
May 11 20:53 SSE 5 16.09 Clear CLR 26 14     50%   26 1019.7 1018.6      
Jun 12 03:53 SSE 8 16.09 Mostly Clear FEW040 23 22     91%   24 1021 1020.2      
Jun 11 23:53 SSE 8 16.09 Mostly Clear FEW050 26 21     74%   28 1021 1019.9      
Jun 11 07:53 SE 15 16.09 Partly Cloudy SCT065 SCT250 24 19     74%   24 1021.7 1020.7      
Jun 10 13:53 ESE 15 16.09 Mostly Cloudy SCT060 BKN075 30 14     39%   30 1019 1018      
Jun 10 11:53 5 16.09 Partly Cloudy SCT070 28        %     1019.7 1018.9      
Jun 08 22:53 Calm 16.09 Clear CLR 20 15     73%     1014.2 1013.4      
Jun 08 20:53 N 11 16.09 Mostly Clear FEW250 21 14     66%     1012.9 1012.2      
Jun 07 18:53   16.09 Mostly Clear FEW065 FEW250 26 12     42%   26 1011.5 1010.7      
Jun 06 03:11 NE 8 16.09 Mostly Cloudy FEW007 FEW022 BKN028 22 21     96%   22 1009.5        
Jun 06 02:53 NNE 8 16.09 Partly Cloudy SCT120 22 21     96%   22 1009.5 1008.5      
Jun 05 19:53 Calm 16.09 Light Rain FEW020 SCT120 OVC250 22 21     93%   23 1009.8 1009.1 0    
Jun 05 14:53 Calm 16.09 Cloudy BKN065 BKN100 OVC250 24 21     84%   25 1010.5 1009.8 0